This demonstration page uses our WeatherBlox Daily Observations layout. Learn more.

Left ArrowRight Arrow

Hourly Observations for December 29, 2015

Temp ( °F °C ) Dew Point ( °F °C ) Humidity (%) Winds ( mph kmh ) Pressure ( in mb ) Visibility ( mi km ) Precip ( " mm )
12:53 am 00:53 Clear 44 6.7 27 -2.8 51 51 NNW 8 13 30.06 1018 10 16 0.00 0.00
1:53 am 01:53 Clear 43 6.1 27 -2.8 53 53 N 8 13 30.06 1018 10 16 0.00 0.00
2:53 am 02:53 Clear 40 4.4 27 -2.8 60 60 NNE 3 6 30.07 1018 10 16 0.00 0.00
3:53 am 03:53 Clear 40 4.4 27 -2.8 60 60 NW 3 6 30.06 1018 10 16 0.00 0.00
4:53 am 04:53 Clear 38 3.3 27 -2.8 65 65 N 6 9 30.06 1018 10 16 0.00 0.00
5:53 am 05:53 Clear 40 4.4 27 -2.8 60 60 NNW 7 11 30.08 1019 10 16 0.00 0.00
6:53 am 06:53 Clear 40 4.4 27 -2.8 60 60 N 3 6 30.10 1019 10 16 0.00 0.00
7:53 am 07:53 Sunny 38 3.3 28 -2.2 68 68 NW 3 6 30.09 1019 10 16 0.00 0.00
8:53 am 08:53 Sunny 43 6.1 28 -2.2 56 56 NNW 3 6 30.11 1020 10 16 0.00 0.00
9:53 am 09:53 Mostly Sunny 47 8.3 29 -1.7 50 50 N 5 7 30.14 1021 10 16 0.00 0.00
10:53 am 10:53 Partly Cloudy 50 10 27 -2.8 41 41 N 9 15 30.13 1020 10 16 0.00 0.00
11:53 am 11:53 Sunny 51 10.6 25 -3.9 36 36 N 9 15 30.11 1020 10 16 0.00 0.00
12:53 pm 12:53 Sunny 54 12.2 26 -3.3 34 34 VRB 6 9 30.07 1018 10 16 0.00 0.00
1:53 pm 13:53 Sunny 55 12.8 24 -4.4 30 30 ENE 6 9 30.06 1018 10 16 0.00 0.00
2:53 pm 14:53 Sunny 55 12.8 23 -5 29 29 NE 3 6 30.06 1018 10 16 0.00 0.00
3:53 pm 15:53 Sunny 54 12.2 25 -3.9 33 33 S 3 6 30.06 1018 10 16 0.00 0.00
4:53 pm 16:53 Clear 49 9.4 29 -1.7 46 46 S 3 6 30.07 1018 10 16 0.00 0.00
5:53 pm 17:53 Clear 43 6.1 27 -2.8 53 53 Calm 30.09 1019 10 16 0.00 0.00
6:53 pm 18:53 Clear 41 5 29 -1.7 62 62 Calm 30.11 1020 10 16 0.00 0.00
7:53 pm 19:53 Clear 39 3.9 29 -1.7 67 67 Calm 30.12 1020 10 16 0.00 0.00
8:53 pm 20:53 Mostly Cloudy 43 6.1 32 0 65 65 SSW 6 9 30.12 1020 10 16 0.00 0.00
9:53 pm 21:53 Cloudy 39 3.9 31 -0.6 73 73 N 8 13 30.16 1021 10 16 0.00 0.00
10:53 pm 22:53 Cloudy 41 5 31 -0.6 67 67 N 3 6 30.17 1022 10 16 0.00 0.00
11:53 pm 23:53 Cloudy 41 5 33 0.6 73 73 NW 5 7 30.18 1022 10 16 0.00 0.00

Powered by AerisWeather